Location: Asheville, NC
(35.6000°N, 82.5500°W)
Time: 04:40:27
(UTC-05:00)

OTV 5 (USA 277) - Pass Details

Date: 10 January 2018
Orbit: 404 x 417 km, 43.0° (Epoch: 07 September)

Event Time Altitude Azimuth Distance (km) Brightness Sun altitude
Exits shadow 05:48:35 40° 49° (NE) 608 ? -22.2°
Drops below altitude 10° 05:51:13 10° 95° (E) 1,448 ? -21.7°
Sets 05:53:22 0° 102° (ESE) 2,305 ? -21.3°
